Location: Newark
(27.9675°N, 86.8869°E)
Time: 16:34:05
(UTC+00:00)

SR - Pass Details

Date: 27 October 2019
Orbit: 573 x 882 km, 66.7° (Epoch: 20 November)

Event Time Altitude Azimuth Distance (km) Brightness Sun altitude
Rises 12:30:59 0° 154° (SSE) 2,950 ? -13.5°
Enters shadow 12:33:38 - 134° (SE) 2,300 ? -14.1°
Reaches altitude 10° 12:34:52 10° 121° (ESE) 2,122 - -14.3°
Maximum altitude 12:36:24 11° 102° (ESE) 2,059 - -14.7°
Drops below altitude 10° 12:37:58 10° 83° (E) 2,190 - -15.0°
Sets 12:42:09 0° 51° (NE) 3,206 - -15.9°
